When you browse on this site, cookies collect data to enhance your experience and personalize the content and advertising you see.
Visit our Privacy Policy to learn more. By continuing to use the site, you agree to this use of cookies and data.
  • In France
  • List of Countries
  • For 7 days
  • Water Temperature
  • Satellite Maps
  • Weather Map
  • Weather Widgets
  • user-avatar
    Login

    Hourly Weather Uda

    Today, 19 February, Tuesday

    Time Temperature Precipitation Wind Pressure Humidity
    00:00 -12°C° 0 mm 4 mps 752 mmHg 88%
    01:00 -14°C° 0 mm 4 mps 753 mmHg 90%
    02:00 -14°C° 0 mm 3 mps 753 mmHg 91%
    03:00 -15°C° 0 mm 3 mps 754 mmHg 92%
    04:00 -14°C° 0 mm 2 mps 754 mmHg 93%
    05:00 -15°C° 0 mm 2 mps 754 mmHg 93%
    06:00 -15°C° 0 mm 2 mps 754 mmHg 93%
    07:00 -15°C° 0 mm 2 mps 754 mmHg 93%
    08:00 -14°C° 0 mm 2 mps 754 mmHg 92%
    09:00 -14°C° 0 mm 2 mps 754 mmHg 92%
    10:00 -13°C° 0 mm 3 mps 754 mmHg 90%
    11:00 -12°C° 0 mm 3 mps 754 mmHg 88%
    12:00 -11°C° 0 mm 4 mps 753 mmHg 87%
    13:00 -11°C° 0 mm 5 mps 753 mmHg 86%
    14:00 -10°C° 0 mm 5 mps 752 mmHg 85%
    15:00 -9°C° 0 mm 6 mps 751 mmHg 85%
    16:00 -10°C° 0 mm 6 mps 751 mmHg 85%
    17:00 -10°C° 0 mm 6 mps 751 mmHg 85%
    18:00 -10°C° 0 mm 6 mps 750 mmHg 85%
    19:00 -10°C° 0 mm 6 mps 750 mmHg 86%
    20:00 -10°C° 0 mm 6 mps 750 mmHg 86%
    21:00 -8°C° 0 mm 5 mps 749 mmHg 87%
    22:00 -8°C° 0 mm 5 mps 749 mmHg 86%
    23:00 -8°C° 0 mm 5 mps 749 mmHg 86%

    Tomorrow, 20 February, Wednesday

    Time Temperature Precipitation Wind Pressure Humidity
    00:00 -8°C° 0 mm 5 mps 748 mmHg 86%
    01:00 -10°C° 0 mm 5 mps 748 mmHg 86%
    02:00 -10°C° 0 mm 6 mps 747 mmHg 85%
    03:00 -10°C° 0 mm 6 mps 747 mmHg 85%
    04:00 -10°C° 0 mm 6 mps 746 mmHg 85%
    05:00 -10°C° 0 mm 6 mps 746 mmHg 86%
    06:00 -11°C° 0 mm 6 mps 745 mmHg 87%
    07:00 -10°C° 0 mm 6 mps 745 mmHg 87%
    08:00 -9°C° 0 mm 6 mps 744 mmHg 88%
    09:00 -9°C° 0 mm 6 mps 744 mmHg 89%
    10:00 -8°C° 0 mm 6 mps 744 mmHg 89%
    11:00 -5°C° 0 mm 6 mps 743 mmHg 89%
    12:00 -4°C° 0 mm 7 mps 743 mmHg 89%
    13:00 -4°C° 0.1 mm 6 mps 743 mmHg 89%
    14:00 -3°C° 0.1 mm 6 mps 743 mmHg 89%
    15:00 -3°C° 0.1 mm 6 mps 742 mmHg 89%
    16:00 -3°C° 0.1 mm 6 mps 742 mmHg 90%
    17:00 -3°C° 0.1 mm 6 mps 742 mmHg 91%
    18:00 -3°C° 0.1 mm 6 mps 741 mmHg 92%
    19:00 -2°C° 0.4 mm 5 mps 741 mmHg 92%
    20:00 -2°C° 0.4 mm 5 mps 741 mmHg 92%
    21:00 -2°C° 0.4 mm 5 mps 741 mmHg 93%
    22:00 -2°C° 0.1 mm 5 mps 740 mmHg 93%
    23:00 -1°C° 0.1 mm 4 mps 740 mmHg 93%

    Day after tomorrow, 21 February, Thursday

    Time Temperature Precipitation Wind Pressure Humidity
    00:00 -1°C° 0.1 mm 4 mps 740 mmHg 94%
    01:00 -2°C° 0 mm 4 mps 739 mmHg 94%
    02:00 -2°C° 0 mm 4 mps 739 mmHg 93%
    03:00 -2°C° 0 mm 4 mps 739 mmHg 93%
    04:00 -2°C° 0.1 mm 5 mps 738 mmHg 93%
    05:00 -2°C° 0.1 mm 5 mps 738 mmHg 93%
    06:00 -2°C° 0.1 mm 5 mps 737 mmHg 93%
    07:00 -2°C° 0.2 mm 5 mps 737 mmHg 93%
    08:00 -2°C° 0.2 mm 5 mps 737 mmHg 93%
    09:00 -2°C° 0.2 mm 5 mps 737 mmHg 93%
    10:00 -2°C° 0.2 mm 5 mps 737 mmHg 94%
    11:00 -2°C° 0.2 mm 5 mps 737 mmHg 96%
    12:00 -1°C° 0.2 mm 4 mps 737 mmHg 97%
    13:00 -2°C° 0.1 mm 4 mps 737 mmHg 95%
    14:00 -2°C° 0.1 mm 4 mps 737 mmHg 92%
    15:00 -3°C° 0.1 mm 4 mps 737 mmHg 89%
    16:00 -3°C° 0.1 mm 4 mps 737 mmHg 90%
    17:00 -4°C° 0.1 mm 3 mps 737 mmHg 91%
    18:00 -5°C° 0.1 mm 3 mps 737 mmHg 92%
    19:00 -5°C° 0.1 mm 3 mps 737 mmHg 93%
    20:00 -5°C° 0.1 mm 3 mps 737 mmHg 94%
    21:00 -5°C° 0.1 mm 3 mps 737 mmHg 96%
    22:00 -5°C° 0.3 mm 4 mps 737 mmHg 95%
    23:00 -4°C° 0.3 mm 4 mps 738 mmHg 94%

    22 February, Friday

    Time Temperature Precipitation Wind Pressure Humidity
    00:00 -5°C° 0.3 mm 5 mps 738 mmHg 94%
    01:00 -6°C° 0.3 mm 6 mps 738 mmHg 92%
    02:00 -8°C° 0.3 mm 7 mps 739 mmHg 90%
    03:00 -9°C° 0.3 mm 7 mps 739 mmHg 89%
    04:00 -9°C° 0.2 mm 7 mps 740 mmHg 88%
    05:00 -11°C° 0.2 mm 7 mps 741 mmHg 88%
    06:00 -12°C° 0.2 mm 7 mps 741 mmHg 88%
    07:00 -12°C° 0.2 mm 7 mps 742 mmHg 87%
    08:00 -13°C° 0.2 mm 8 mps 743 mmHg 86%
    09:00 -13°C° 0.2 mm 8 mps 744 mmHg 86%
    10:00 -15°C° 0.1 mm 8 mps 745 mmHg 84%
    11:00 -15°C° 0.1 mm 8 mps 745 mmHg 83%
    12:00 -15°C° 0.1 mm 8 mps 746 mmHg 81%
    13:00 -14°C° 0.1 mm 7 mps 746 mmHg 81%
    14:00 -14°C° 0.1 mm 7 mps 747 mmHg 81%
    15:00 -14°C° 0.1 mm 7 mps 747 mmHg 80%
    16:00 -15°C° 0.1 mm 6 mps 747 mmHg 82%
    17:00 -15°C° 0.1 mm 5 mps 748 mmHg 84%
    18:00 -15°C° 0.1 mm 4 mps 748 mmHg 87%
    19:00 -16°C° 0 mm 4 mps 749 mmHg 88%
    20:00 -16°C° 0 mm 4 mps 749 mmHg 89%
    21:00 -16°C° 0 mm 3 mps 750 mmHg 91%
    22:00 -16°C° 0 mm 3 mps 750 mmHg 91%
    23:00 -16°C° 0 mm 3 mps 751 mmHg 91%

    23 February, Saturday

    Time Temperature Precipitation Wind Pressure Humidity
    00:00 -16°C° 0 mm 3 mps 751 mmHg 92%
    01:00 -16°C° 0 mm 3 mps 752 mmHg 92%
    02:00 -16°C° 0 mm 3 mps 752 mmHg 92%
    03:00 -16°C° 0 mm 3 mps 753 mmHg 92%
    04:00 -17°C° 0 mm 4 mps 753 mmHg 91%
    05:00 -17°C° 0 mm 4 mps 753 mmHg 91%
    06:00 -17°C° 0 mm 4 mps 754 mmHg 91%
    07:00 -17°C° 0 mm 4 mps 754 mmHg 91%
    08:00 -17°C° 0 mm 4 mps 755 mmHg 91%
    09:00 -17°C° 0 mm 4 mps 755 mmHg 91%
    10:00 -17°C° 0 mm 4 mps 755 mmHg 89%
    11:00 -16°C° 0 mm 4 mps 756 mmHg 88%
    12:00 -15°C° 0 mm 4 mps 756 mmHg 86%
    13:00 -15°C° 0.1 mm 4 mps 756 mmHg 86%
    14:00 -15°C° 0.1 mm 4 mps 756 mmHg 86%
    15:00 -14°C° 0.1 mm 4 mps 757 mmHg 86%
    16:00 -14°C° 0 mm 3 mps 757 mmHg 88%
    17:00 -14°C° 0 mm 3 mps 757 mmHg 90%
    18:00 -13°C° 0 mm 2 mps 757 mmHg 92%
    19:00 -14°C° 0 mm 2 mps 758 mmHg 93%
    20:00 -14°C° 0 mm 2 mps 758 mmHg 93%
    21:00 -15°C° 0 mm 2 mps 759 mmHg 94%
    22:00 -15°C° 0 mm 2 mps 759 mmHg 95%
    23:00 -16°C° 0 mm 2 mps 759 mmHg 95%

    24 February, Sunday

    Time Temperature Precipitation Wind Pressure Humidity
    00:00 -17°C° 0 mm 2 mps 760 mmHg 95%
    01:00 -16°C° 0 mm 2 mps 760 mmHg 96%
    02:00 -16°C° 0 mm 2 mps 761 mmHg 96%
    03:00 -16°C° 0 mm 2 mps 761 mmHg 96%
    04:00 -16°C° 0 mm 2 mps 761 mmHg 96%
    05:00 -17°C° 0 mm 2 mps 761 mmHg 96%
    06:00 -17°C° 0 mm 2 mps 762 mmHg 97%
    07:00 -17°C° 0 mm 2 mps 762 mmHg 96%
    08:00 -18°C° 0 mm 3 mps 763 mmHg 95%
    09:00 -17°C° 0 mm 3 mps 763 mmHg 95%
    10:00 -16°C° 0 mm 2 mps 763 mmHg 93%
    11:00 -15°C° 0 mm 2 mps 763 mmHg 92%
    12:00 -14°C° 0 mm 2 mps 764 mmHg 90%
    13:00 -13°C° 0 mm 2 mps 764 mmHg 89%
    14:00 -12°C° 0 mm 2 mps 763 mmHg 88%
    15:00 -12°C° 0 mm 2 mps 763 mmHg 87%
    16:00 -13°C° 0 mm 2 mps 763 mmHg 89%
    17:00 -12°C° 0 mm 1 mps 763 mmHg 91%
    18:00 -14°C° 0 mm 0 mps 762 mmHg 93%
    19:00 -14°C° 0 mm 0 mps 762 mmHg 93%
    20:00 -15°C° 0 mm 0 mps 762 mmHg 93%
    21:00 -15°C° 0 mm 0 mps 762 mmHg 93%
    22:00 -15°C° 0 mm 1 mps 761 mmHg 93%
    23:00 -15°C° 0 mm 1 mps 761 mmHg 94%
    Show more